Regional Weather Roundup
Issued by NWS

Home | Current Version | Previous Version | Text Only | Print | Product List | Glossary Off
Versions: 1 2 3 4 5 6 7 8 9 10 11 12 13 14 15 16 17 18 19 20 21 22 23 24 25 26 27 28 29 30 31 32 33 34 35 36 37 38 39 40 41 42 43 44 45 46 47 48 49 50

000
ASUS43 KIND 281359
RWRIN

WEATHER ROUNDUP FOR INDIANA
NATIONAL WEATHER SERVICE INDIANAPOLIS IN
1000 AM EDT SAT MAY 28 2016

NOTE: "FAIR" INDICATES FEW OR NO CLOUDS BELOW 12,000 FEET WITH NO
SIGNIFICANT WEATHER AND/OR OBSTRUCTIONS TO VISIBILITY.

* - STATION DOES NOT REPORT WEATHER SUCH AS PRECIPITATION OR FOG.

+ - STATION NOT QUALITY CONTROLLED BY THE NATIONAL WEATHER SERVICE.
    USE DATA WITH CAUTION...ESPECIALLY DEWPOINT AND RELATIVE
    HUMIDITY OBSERVATIONS.

INZ001>003-010>013-019-020-281500-
NORTHWEST INDIANA

CITY           SKY/WX    TMP DP  RH WIND       PRES   REMARKS
GARY /AIRPORT/ PTSUNNY   75  72  88 S12G23    29.93R
RENSSELAER +   CLOUDY    73  68  83 S12       29.96S

$$

LMZ046-743>745-281500-
SOUTHERN LAKE MICHIGAN

STATION/POSITION TIME  TEMP    WIND        PRES    WAVE
                       AIR SEA DIR/SP/G            HT
                 (UTC) (F)     (DEG/KT/KT) (MB)    (FT)
BURNS HARBOR     1301   73     190/ 19/ 25 1013.2S
MICHIGAN CITY    1300   72     170/ 16/ 19   N/A
5NW MICH CITY    1300   68 58  210/ 14/ 17   N/A     2

$$

INZ004-005-014>016-021>024-281500-
NORTH CENTRAL INDIANA

CITY           SKY/WX    TMP DP  RH WIND       PRES   REMARKS
ELKHART        CLOUDY    77  68  73 SW10      29.99R
GOSHEN         PTSUNNY   78  64  61 S16       29.99R
SOUTH BEND     CLOUDY    74  64  71 S13       29.97R

$$

INZ006>009-017-018-025>027-281500-
NORTHEAST INDIANA

CITY           SKY/WX    TMP DP  RH WIND       PRES   REMARKS
ANGOLA *+        N/A     73  66  78 S9        30.03R
FORT WAYNE     CLOUDY    73  65  75 S10       30.04R

$$

INZ028-029-035-036-043>045-051>053-281500-
WEST CENTRAL INDIANA

CITY           SKY/WX    TMP DP  RH WIND       PRES   REMARKS
CRAWFORDSVL +  CLOUDY    73  65  76 S12       30.01R
GREENCASTLE +  CLOUDY    75  70  83 S8        30.03R
LAFAYETTE      CLOUDY    74  64  71 S13G22    29.98R
TERRE HAUTE    CLOUDY    77  66  68 S16G24    30.00R

$$

INZ030>032-037>040-046>048-054>057-064-065-281500-
CENTRAL INDIANA

CITY           SKY/WX    TMP DP  RH WIND       PRES   REMARKS
ANDERSON       SUNNY     73  64  73 S9        30.07R
COLUMBUS         N/A     72  68  88 S12       30.07R
INDIANAPOLIS   CLOUDY    74  65  73 S14       30.02R
-EAGLE CREEK   CLOUDY    75  65  70 S8        30.03R
KOKOMO *+      CLOUDY    77  63  61 SW16G22   30.02R
SHELBYVILLE    CLOUDY    76  65  68 S13       30.05R

$$

INZ033-034-041-042-049-050-058-059-281500-
EAST CENTRAL INDIANA

CITY           SKY/WX    TMP DP  RH WIND       PRES   REMARKS
MUNCIE         MOSUNNY   77  64  64 S9        30.06R

$$

INZ060-061-067>069-081>083-085>088-281500-
SOUTHWEST INDIANA

CITY           SKY/WX    TMP DP  RH WIND       PRES   REMARKS
EVANSVILLE     CLOUDY    75  66  73 S9        30.04R
HUNTINGBURG *+ CLOUDY    75  66  73 S12       30.05R

$$

INZ062-063-066-070>080-084-089>092-281500-
SOUTH CENTRAL AND SOUTHEAST INDIANA

CITY           SKY/WX    TMP DP  RH WIND       PRES   REMARKS
BLOOMINGTON    CLOUDY    75  65  70 S8        30.04R
MADISON *+     PTSUNNY   73  64  73 S8        30.11R
SEYMOUR +      CLOUDY    73  66  78 SE7       30.07R

$$




USA.gov is the U.S. government's official web portal to all federal, state and local government web resources and services.